Duluth, MN

8:20 PM CDT on August 23, 2017 (GMT -0500)
Duluth International

Weather History for KDLH - January, 2013

Change the Weather History Date:

Thursday, January 3, 2013

  Actual Average Record
Temperature  
Mean Temperature 17 °F 11 °F  
Max Temperature 21 °F 19 °F 42 °F (1889)
Min Temperature 12 °F 2 °F -30 °F (1911)
Degree Days  
Heating Degree Days 48 54  
Month to date heating degree days 158 162  
Since 1 July heating degree days 3630 3931  
Cooling Degree Days 0 0  
Month to date cooling degree days 0 0  
Year to date cooling degree days 0 0  
Moisture  
Dew Point 9 °F    
Average Humidity 70    
Maximum Humidity 91    
Minimum Humidity 49    
Precipitation  
Precipitation T in 0.04 in 0.77 in (1906)
Month to date precipitation T 0.11  
Year to date precipitation T 0.11  
Snow  
Snow 0.20 in 0.60 in 7.60 in (1906)
Month to date snowfall 0.3 2.0  
Since 1 July snowfall 24.8 35.8  
Snow Depth 5.00 in    
Sea Level Pressure  
Sea Level Pressure 30.07 in    
Wind  
Wind Speed 15 mph (WNW)    
Max Wind Speed 28 mph    
Max Gust Speed 36 mph    
Visibility 9 miles    
Events Snow    
T = Trace of Precipitation, MM = Missing Value Source: NWS Daily Summary

Daily Weather History Graph

Daily Weather History Graph

Search for Another Location

Airport or City:

Trip Planner

Search our weather history database for the weather conditions in past years. The results will help you decide how hot, cold, wet, or windy it might be!

Date:

Astronomy

Jan. 03, 2013 Rise Set
Actual Time 7:53 AM CST 4:33 PM CST
Civil Twilight 7:18 AM CST 5:08 PM CST
Nautical Twilight 6:40 AM CST 5:46 PM CST
Astronomical Twilight 6:03 AM CST 6:23 PM CST
Moon 11:36 PM CST (1/3) 10:40 AM CST (1/3)
Length of Visible Light 9h 49m
Length of Day
8h 39m
Waning Gibbous, 65% of the Moon is Illuminated
Jan 3
Waning Gibbous
Jan 4
Last Quarter
Jan 11
New
Jan 18
First Quarter
Jan 26
Full

Hourly Weather History & Observations

Time (CST) Temp. Windchill Dew Point Humidity Pressure Visibility Wind Dir Wind Speed Gust Speed Precip Events Conditions
12:08 AM 19.4 °F 7.9 °F 17.6 °F 93% 29.96 in 5.0 mi NW 10.4 mph - 0.00 in Snow Light Snow
12:55 AM 21.0 °F 9.9 °F 17.1 °F 85% 30.04 in 8.0 mi NW 10.4 mph - 0.00 in Snow Light Snow
1:55 AM 21.0 °F 8.6 °F 17.1 °F 85% 30.05 in 9.0 mi NNW 12.7 mph 20.7 mph 0.00 in Snow Light Snow
2:12 AM 21.2 °F 8.9 °F 17.6 °F 86% 29.97 in 9.0 mi NW 12.7 mph 20.7 mph 0.00 in Snow Light Snow
2:55 AM 21.0 °F 8.6 °F 17.1 °F 85% 30.06 in 8.0 mi NW 12.7 mph 20.7 mph 0.00 in Snow Light Snow
3:55 AM 19.9 °F 4.8 °F 15.1 °F 81% 30.09 in 9.0 mi NNW 18.4 mph 23.0 mph 0.00 in Snow Light Snow
4:55 AM 19.0 °F 5.6 °F 14.0 °F 81% 30.11 in 8.0 mi NW 13.8 mph 21.9 mph 0.00 in Snow Light Snow
5:55 AM 17.1 °F 2.5 °F 12.0 °F 81% 30.14 in 6.0 mi NW 15.0 mph 21.9 mph 0.00 in Snow Light Snow
6:20 AM 15.8 °F 0.9 °F 10.4 °F 79% 30.05 in 5.0 mi NW 15.0 mph 21.9 mph 0.00 in Snow Light Snow
6:55 AM 12.0 °F -5.6 °F 7.0 °F 80% 30.16 in 3.0 mi NW 18.4 mph 24.2 mph 0.00 in Snow Light Snow
7:55 AM 12.0 °F -3.4 °F 7.0 °F 80% 30.17 in 8.0 mi NW 13.8 mph 20.7 mph 0.00 in Snow Light Snow
8:52 AM 12.2 °F -0.2 °F 6.8 °F 79% 30.08 in 10.0 mi NW 9.2 mph 18.4 mph 0.00 in   Scattered Clouds
8:55 AM 12.0 °F 0.5 °F 6.1 °F 77% 30.18 in 10.0 mi NW 8.1 mph - 0.00 in   Scattered Clouds
9:55 AM 12.9 °F -0.2 °F 6.1 °F 74% 30.19 in 10.0 mi NW 10.4 mph - 0.00 in Snow Light Snow
10:02 AM 12.2 °F -2.5 °F 6.8 °F 79% 30.10 in 9.0 mi WNW 12.7 mph - 0.00 in Snow Light Snow
10:55 AM 12.9 °F -1.6 °F 5.0 °F 71% 30.19 in 10.0 mi West 12.7 mph - 0.00 in   Scattered Clouds
11:55 AM 16.0 °F 4.4 °F 5.0 °F 62% 30.17 in 10.0 mi WNW 9.2 mph - N/A   Partly Cloudy
12:55 PM 18.0 °F 5.4 °F 5.0 °F 57% 30.13 in 10.0 mi West 11.5 mph - N/A   Clear
1:55 PM 19.9 °F 7.3 °F 6.1 °F 55% 30.11 in 10.0 mi WSW 12.7 mph - N/A   Clear
2:55 PM 19.9 °F 7.3 °F 3.0 °F 48% 30.09 in 10.0 mi WSW 12.7 mph - N/A   Clear
3:55 PM 19.0 °F 5.6 °F 3.0 °F 50% 30.09 in 10.0 mi WSW 13.8 mph - N/A   Clear
4:55 PM 17.1 °F 2.0 °F 3.0 °F 54% 30.08 in 10.0 mi WSW 16.1 mph - N/A   Clear
5:55 PM 16.0 °F -0.9 °F 5.0 °F 62% 30.05 in 10.0 mi WSW 19.6 mph - N/A   Clear
6:55 PM 14.0 °F -4.3 °F 6.1 °F 71% 30.04 in 10.0 mi WSW 21.9 mph - N/A   Clear
7:55 PM 12.9 °F -5.7 °F 6.1 °F 74% 30.01 in 10.0 mi WSW 21.9 mph 31.1 mph N/A   Clear
8:55 PM 12.9 °F -6.5 °F 8.1 °F 81% 29.98 in 10.0 mi WSW 24.2 mph 34.5 mph N/A   Clear
9:55 PM 15.1 °F -2.9 °F 10.0 °F 80% 29.93 in 10.0 mi WSW 21.9 mph 32.2 mph N/A   Clear
10:55 PM 15.1 °F -2.9 °F 10.0 °F 80% 29.92 in 10.0 mi WSW 21.9 mph 31.1 mph N/A   Clear
11:55 PM 16.0 °F 1.7 °F 10.0 °F 77% 29.94 in 10.0 mi West 13.8 mph - N/A   Clear